Вернуться в каталог

FENGYUN 1C DEB

АктивенPO
NORAD 31623·DEBRIS·🇨🇳 China

Запущен May 10, 1999 с Taiyuan Satellite Launch Center

Loading…

Ближайшие Пролёты (ближайшие 24 часа)

TLE

СвежийSource: Space-Track

Эпоха: Sep 11, 2026, 09:46 UTC

1 31623U 99025CAD 26254.40716792  .00000179  00000-0  16837-3 0  9990
2 31623  97.6327  59.5740 0192967 325.4529  33.4213 13.82819359616889

Отслеживайте FENGYUN 1C DEB в реальном времени с AllMySat

Download on the App Store